STARLINK-34840, 66406

Orbit data source: Space-Track

STARLINK-34840, 66406 is a payload satellite owned by SpaceX/Seattle (US) in LEO that was launched on Sat, 08 Nov 2025 UTC via an FALCON 9 launch vehicle from the Air Force Eastern Test Range (AFETR). Payload-class satellites include a variety of spacecraft equipped with specific instruments for various scientific and technological missions. These include communications satellites like Starlink; space stations such as the ISS; scientific satellites like the Hubble; Earth observation satellites from companies like Planet Labs, Umbra, and HawkEye 360; GPS; miniature CubeSats for education and research; and military/defense satellites.

Loading next visibility...
Identifier
66406, 2025-257AC
Orbit
LEO
Country
Flag of USUS
Related business
Manufacturer
SpaceX/Seattle
Mission
Operational Commercial Communications
Bus & Motor
STARLINK V2MO, Unknown motor
Mass
575 kg wet, ~530 kg dry
Launch date (UTC)
2025-11-08 (7 months ago)
Launch vehicle
FALCON 9
Launch site
Air Force Eastern Test Range (AFETR)
Object type
Payload
Rocket body
Debris
Shape & HBR
Box + 2 Pan, 17.7 m
Radar Cross Section
36.964 m², Large (>1 m²)

Expand to show TLE details & history
Last TLE update: 22 hours ago

TLE from 22 hours ago
0 STARLINK-34840
1 66406U 25257AC  26170.94490850  .00022721  00000-0  68132-3 0  9995
2 66406  53.1586 100.3173 0001106  94.6553 265.4576 15.34410670 35359
Epoch: 2026-06-19T22:40Z
TLE epoch observation values (Epoch: 2026-06-19T22:40:40.094Z)
Latitude
-0.00001°
Longitude
-148.01638°
Altitude
463.633 km
Speed
7.636 km/s
True Right ascension
06h 41m 16s
True Declination
0° 00' 00"
Sunlit
Object was in daylight at epoch
Visualization orbit readout
Latitude
Unknown
Longitude
Unknown
Altitude
Unknown
Speed
Unknown
Apparent Right ascension
Unknown
Apparent Declination
Unknown
Sunlit
N/A
Visualization observer readout
Local Sidereal Time
07:17:53
Azimuth
Unknown
Elevation
Unknown
Doppler factor
Unknown
Orbital elements
Apogee altitude
463.685 km
Perigee altitude
462.172 km
Semi-major axis
6,841.066 km
Eccentricity
0.00011
Inclination
53.1586°
RAAN
100.3173°
Arg. of periapsis
94.6553°
True anomaly
265.44497°
Mean anomaly
265.4576°
Eccentric anomaly
265.45128°
Mean motion
3.83581 °/min
Orbital period
93.85 mins
BSTAR
0.00068132
Loading maneuver chart data...
Computing Atmospheric mass density...
Loading historical data...
Loading historical data...
Loading historical data...
Loading historical data...
Loading historical data...
Loading historical data...
Loading historical data...

Documentation

Showing up to 5 results
|